Location: Lewisville
(33.0462°N, 96.9942°W)
Time: 18:05:41
(UTC-05:00)

Envisat - Pass Details

Date: 13 September 2021
Orbit: 764 x 765 km, 98.2° (Epoch: 25 September)

Event Time Altitude Azimuth Distance (km) Brightness Sun altitude
Rises 06:27:49 0° 13° (NNE) 3,233 6.6 -9.7°
Reaches altitude 10° 06:30:08 10° 14° (NNE) 2,303 5.8 -9.2°
Maximum altitude 06:35:13 81° 102° (ESE) 776 3.1 -8.2°
Drops below altitude 10° 06:40:16 10° 190° (S) 2,289 5.3 -7.1°
Sets 06:42:34 0° 191° (SSW) 3,212 6.0 -6.6°
